Terminal Aerodrome Forecast
Issued by NWS

Home | Current Version | Previous Version | Text Only | Print | Product List | Glossary On
Versions: 1 2 3 4 5 6 7 8 9 10 11 12 13 14
000
FTUS43 KMQT 080525
TAFIWD
TAF
KIWD 080525Z 0806/0906 27017G25KT 2SM -SHSN BLSN OVC012
     FM080700 27014G22KT 1SM -SHSN OVC008
     FM081000 31013G21KT 1SM -SHSN OVC010
     FM081500 35014G23KT 1SM -SHSN BLSN OVC010
     FM081800 34013G21KT 2SM -SHSN BLSN OVC015
     FM082200 33012G21KT 1 1/2SM -SHSN OVC015
      AMD NOT SKED=

USA.gov is the U.S. government's official web portal to all federal, state and local government web resources and services.